(348129) = 2004 BZ39

Discovered at Socorro on 2004-01-21 by LINEAR.

Orbit

Orbit type: Main Belt

Note: WebGL enabled browser required.

epoch2023-02-25.0
epoch JD2460000.5
perihelion date2022-11-20.68004
perihelion JD2459904.18004
argument of perihelion (°)16.47358
ascending node (°)111.07351
inclination (°)3.51181
eccentricity0.0897087
perihelion distance (AU)2.5470095
Tisserand w.r.t. Jupiter3.3
ΔV w.r.t. Earth (km/sec)10.0
semimajor axis (AU)2.7980158
mean anomaly (°)20.28359
mean daily motion (°/day)0.21058560
aphelion distance (AU)3.049
period (years)4.68
P-vector [x]-0.60891638
P-vector [y]0.72069441
P-vector [z]0.33139162
Q-vector [x]-0.79117245
Q-vector [y]-0.58189708
Q-vector [z]-0.18826032
absolute magnitude17.2
phase slope0.15
uncertainty0
referenceMPEC 2023-F20
observations used232
oppositions14
arc length (days)10246
first opposition used1995
last opposition used2023
residual rms (arc-secs)0.82
perturbers coarse indicatorM-v
perturbers precise indicator003Ek
first observation date used1995-02-25.0
last observation date used2023-03-16.0
computer nameMPCLINUX
JD of orbit computation2456789.253008
perihelion JD uncertainty (days)1.6888E-04
argument of perihelion uncertainty (°)9.1392E-05
ascending node uncertainty (°)8.3650E-05
inclination uncertainty (°)3.8439E-06
eccentricity uncertainty 4.1326E-08
perihelion distance uncertainty (AU)1.1060E-07
Minimum Orbit Intersection Distances (in AU)
for orbit epoch: 2460000.5, reference: E2023-F20
Mercury2.20947
Venus1.82896
Earth1.56221
Mars0.89255
Jupiter1.98768
Saturn6.42933
Uranus15.83
Neptune26.9506

Observations

233 total observations over interval: 1995 02 25.32175 – 2023 03 16.281222
These data are available for download (format description).

Date (UT) J2000 RA J2000 Dec Magn Location Ref
1995 02 25.32175 11 08 52.91 +10 10 01.7   691 – Steward Observatory, Kitt Peak-Spacewatch MPS 228267
1995 02 25.34347 11 08 51.85 +10 10 09.8 20.4 V 691 – Steward Observatory, Kitt Peak-Spacewatch MPS 228267
1995 02 25.36510 11 08 50.76 +10 10 18.1   691 – Steward Observatory, Kitt Peak-Spacewatch MPS 228267
2002 10 05.341130 00 45 41.123 -00 48 57.03 21.21 V 645 – Apache Point-Sloan Digital Sky Survey MPS 228267
2002 10 05.344602 00 45 40.947 -00 48 58.09 22.11   645 – Apache Point-Sloan Digital Sky Survey MPS 228267
2003 12 22.42584 08 19 49.04 +19 30 33.3 21.8 V 691 – Steward Observatory, Kitt Peak-Spacewatch MPS 175123
2003 12 22.43984 08 19 48.58 +19 30 35.8 21.5 V 691 – Steward Observatory, Kitt Peak-Spacewatch MPS 175123
2003 12 22.45372 08 19 48.11 +19 30 38.0 21.8 V 691 – Steward Observatory, Kitt Peak-Spacewatch MPS 175123
2004 01 21.30397 07 55 53.31 +21 28 36.6 19.9   704 – Lincoln Laboratory ETS, New Mexico MPS 97133
2004 01 21.34335 07 55 50.94 +21 28 46.7 20.3   704 – Lincoln Laboratory ETS, New Mexico MPS 97133
2004 01 21.35622 07 55 50.18 +21 28 50.4 19.9   704 – Lincoln Laboratory ETS, New Mexico MPS 97133
2004 01 22.28723 07 54 57.83 +21 32 38.6 20.3   704 – Lincoln Laboratory ETS, New Mexico MPS 97133
2004 01 22.30022 07 54 56.98 +21 32 40.9 20.3   704 – Lincoln Laboratory ETS, New Mexico MPS 97133
2004 01 22.31301 07 54 56.26 +21 32 43.3 20.4   704 – Lincoln Laboratory ETS, New Mexico MPS 97133
2004 01 22.32602 07 54 55.63 +21 32 46.8 20.3   704 – Lincoln Laboratory ETS, New Mexico MPS 97133
2004 01 27.36488 07 50 16.32 +21 52 33.1 21.2 V 691 – Steward Observatory, Kitt Peak-Spacewatch MPS 97905
2004 01 27.39398 07 50 14.70 +21 52 39.4 21.2 V 691 – Steward Observatory, Kitt Peak-Spacewatch MPS 97905
2004 01 27.42492 07 50 12.98 +21 52 46.3 21.6 V 691 – Steward Observatory, Kitt Peak-Spacewatch MPS 97905
2007 10 08.48020 02 59 03.30 +11 43 12.7 20.7 V G96 – Mt. Lemmon Survey MPS 228267
2007 10 08.48734 02 59 03.04 +11 43 10.9 21.3 V G96 – Mt. Lemmon Survey MPS 228267
2007 10 08.49436 02 59 02.79 +11 43 09.5 20.3 V G96 – Mt. Lemmon Survey MPS 228267
2007 10 08.50145 02 59 02.58 +11 43 08.2 20.8 V G96 – Mt. Lemmon Survey MPS 228267
2007 11 02.33443 02 40 30.72 +10 11 02.1 20.7 V G96 – Mt. Lemmon Survey MPS 228267
2007 11 02.34177 02 40 30.28 +10 11 00.1 20.6 V G96 – Mt. Lemmon Survey MPS 228267
2007 11 02.34904 02 40 29.89 +10 10 58.9 20.8 V G96 – Mt. Lemmon Survey MPS 228267
2007 11 02.35632 02 40 29.46 +10 10 57.1 20.8 V G96 – Mt. Lemmon Survey MPS 228267
2007 11 13.23218 02 31 01.34 +09 32 22.8 20.3 V G96 – Mt. Lemmon Survey MPS 226842
2007 11 13.23958 02 31 00.91 +09 32 20.4 20.2 V G96 – Mt. Lemmon Survey MPS 226842
2007 11 13.24699 02 31 00.51 +09 32 18.6 20.4 V G96 – Mt. Lemmon Survey MPS 226842
2007 11 13.25439 02 31 00.15 +09 32 17.4 20.7 V G96 – Mt. Lemmon Survey MPS 226842
2007 11 13.29881 02 30 57.78 +09 32 08.8 21.0 V G96 – Mt. Lemmon Survey MPS 226842
2007 11 13.30804 02 30 57.34 +09 32 07.4 20.7 V G96 – Mt. Lemmon Survey MPS 226842
2007 11 13.31733 02 30 56.84 +09 32 05.4 20.7 V G96 – Mt. Lemmon Survey MPS 226842
2007 11 13.32654 02 30 56.34 +09 32 03.7 20.7 V G96 – Mt. Lemmon Survey MPS 226842
2007 11 14.19566 02 30 12.78 +09 29 19.8 20.9 V G96 – Mt. Lemmon Survey MPS 226842
2007 11 14.20194 02 30 12.45 +09 29 18.7 20.9 V G96 – Mt. Lemmon Survey MPS 226842
2007 11 14.20817 02 30 12.13 +09 29 17.6 20.8 V G96 – Mt. Lemmon Survey MPS 226842
2007 11 14.21436 02 30 11.80 +09 29 16.6 20.8 V G96 – Mt. Lemmon Survey MPS 226842
2009 01 20.51986 11 01 30.08 +09 34 18.8 21.6 V 691 – Steward Observatory, Kitt Peak-Spacewatch MPS 272447
2009 01 20.53559 11 01 29.88 +09 34 22.5 21.0 V 691 – Steward Observatory, Kitt Peak-Spacewatch MPS 272447
2009 01 20.55133 11 01 29.66 +09 34 25.8 20.9 V 691 – Steward Observatory, Kitt Peak-Spacewatch MPS 272447
2009 02 22.17871 10 42 43.35 +12 29 14.7   691 – Steward Observatory, Kitt Peak-Spacewatch MPS 277564
2009 02 22.19683 10 42 42.43 +12 29 21.1   691 – Steward Observatory, Kitt Peak-Spacewatch MPS 277564
2009 02 22.21520 10 42 41.49 +12 29 28.2   691 – Steward Observatory, Kitt Peak-Spacewatch MPS 277564
2009 02 26.18803 10 39 23.63 +12 53 42.9 20.5 V 691 – Steward Observatory, Kitt Peak-Spacewatch MPS 278614
2009 02 26.20644 10 39 22.70 +12 53 49.3 20.5 V 691 – Steward Observatory, Kitt Peak-Spacewatch MPS 278614
2009 02 26.22461 10 39 21.76 +12 53 55.9 20.3 V 691 – Steward Observatory, Kitt Peak-Spacewatch MPS 278614
2009 03 16.10987 10 25 25.48 +14 25 38.4 20.8 V 691 – Steward Observatory, Kitt Peak-Spacewatch MPS 280053
2009 03 16.12641 10 25 24.83 +14 25 42.0 20.7 V 691 – Steward Observatory, Kitt Peak-Spacewatch MPS 280053
2009 03 16.14297 10 25 24.10 +14 25 46.6 20.8 V 691 – Steward Observatory, Kitt Peak-Spacewatch MPS 280053
2009 03 31.22767 10 17 38.11 +15 07 05.8 21.6 V G96 – Mt. Lemmon Survey MPS 282523
2009 03 31.23926 10 17 37.82 +15 07 07.1 21.5 V G96 – Mt. Lemmon Survey MPS 282523
2009 03 31.25094 10 17 37.60 +15 07 07.6 21.4 V G96 – Mt. Lemmon Survey MPS 282523
2009 03 31.26263 10 17 37.39 +15 07 09.5 21.8 V G96 – Mt. Lemmon Survey MPS 282523
2011 08 24.43543 22 57 00.386 -10 50 49.93 21.8 w F51 – Pan-STARRS 1, Haleakala MPS 388618
2011 08 24.44944 22 56 59.733 -10 50 54.73 21.8 w F51 – Pan-STARRS 1, Haleakala MPS 388618
2011 08 24.46339 22 56 59.072 -10 50 59.48 21.9 w F51 – Pan-STARRS 1, Haleakala MPS 388618
2011 08 24.47738 22 56 58.423 -10 51 04.18 21.8 w F51 – Pan-STARRS 1, Haleakala MPS 388618
2012 12 08.38752 04 55 56.35 +19 19 54.7 19.8 V G96 – Mt. Lemmon Survey MPS 445974
2012 12 08.39277 04 55 56.02 +19 19 54.4 20.1 V G96 – Mt. Lemmon Survey MPS 445974
2012 12 08.39804 04 55 55.70 +19 19 54.1 19.6 V G96 – Mt. Lemmon Survey MPS 445974
2012 12 08.40332 04 55 55.38 +19 19 54.3 20.0 V G96 – Mt. Lemmon Survey MPS 445974
2012 12 21.35558 04 43 50.01 +19 17 21.2 21.0 V G96 – Mt. Lemmon Survey MPS 447751
2012 12 21.36178 04 43 49.69 +19 17 21.0 20.9 V G96 – Mt. Lemmon Survey MPS 447751
2012 12 21.36777 04 43 49.36 +19 17 20.5 20.8 V G96 – Mt. Lemmon Survey MPS 447751
2012 12 21.37384 04 43 49.08 +19 17 20.7 20.8 V G96 – Mt. Lemmon Survey MPS 447751
2013 01 07.24647 04 32 17.640 +19 23 58.07 21.0 w F51 – Pan-STARRS 1, Haleakala MPS 450896
2013 01 07.26417 04 32 17.103 +19 23 59.24 21.1 w F51 – Pan-STARRS 1, Haleakala MPS 450896
2013 01 07.28112 04 32 16.593 +19 24 00.22 21.2 w F51 – Pan-STARRS 1, Haleakala MPS 450896
2013 01 07.29718 04 32 16.093 +19 24 00.92 21.3 w F51 – Pan-STARRS 1, Haleakala MPS 450896
2014 02 28.50122 13 18 11.458 -02 55 48.29 21.2 w F51 – Pan-STARRS 1, Haleakala MPS 505334
2014 02 28.51250 13 18 11.231 -02 55 45.78 21.2 w F51 – Pan-STARRS 1, Haleakala MPS 505334
2014 02 28.52372 13 18 11.006 -02 55 43.43 21.2 w F51 – Pan-STARRS 1, Haleakala MPS 505334
2014 02 28.53500 13 18 10.772 -02 55 40.91 21.2 w F51 – Pan-STARRS 1, Haleakala MPS 505334
2014 03 24.47390 13 04 47.923 -00 59 43.50 20.8 w F51 – Pan-STARRS 1, Haleakala MPS 508461
2014 03 24.48750 13 04 47.291 -00 59 38.92 20.9 w F51 – Pan-STARRS 1, Haleakala MPS 508461
2014 04 04.24575 12 56 14.12 -00 00 56.7 20.4 V G96 – Mt. Lemmon Survey MPS 509705
2014 04 04.25079 12 56 13.84 -00 00 55.6 20.4 V G96 – Mt. Lemmon Survey MPS 509705
2014 04 04.25583 12 56 13.61 -00 00 53.8 20.5 V G96 – Mt. Lemmon Survey MPS 509705
2014 04 04.26091 12 56 13.37 -00 00 52.4 20.0 V G96 – Mt. Lemmon Survey MPS 509705
2014 04 04.31543 12 56 10.57 -00 00 34.9 20.4 V G96 – Mt. Lemmon Survey MPS 509705
2014 04 04.32339 12 56 10.18 -00 00 32.4 20.1 V G96 – Mt. Lemmon Survey MPS 509705
2014 04 04.33138 12 56 09.78 -00 00 29.7 20.0 V G96 – Mt. Lemmon Survey MPS 509705
2014 04 04.33937 12 56 09.38 -00 00 27.2 20.0 V G96 – Mt. Lemmon Survey MPS 509705
2014 04 23.30258 12 41 52.284 +01 21 38.66 21.0 w F51 – Pan-STARRS 1, Haleakala MPS 512391
2014 04 23.31468 12 41 51.815 +01 21 41.07 21.0 w F51 – Pan-STARRS 1, Haleakala MPS 512391
2014 04 23.32682 12 41 51.311 +01 21 43.65 21.1 w F51 – Pan-STARRS 1, Haleakala MPS 512391
2014 04 23.33901 12 41 50.831 +01 21 45.85 21.1 w F51 – Pan-STARRS 1, Haleakala MPS 512391
2014 04 29.14892 12 38 24.59 +01 37 17.3   691 – Steward Observatory, Kitt Peak-Spacewatch MPS 513726
